TimeEST,TemperatureF,Dew PointF,Humidity,Sea Level PressureIn,VisibilityMPH,Wind Direction,Wind SpeedMPH,Gust SpeedMPH,PrecipitationIn,Events,Conditions,WindDirDegrees,DateUTC
12:54 AM,23.0,8.1,53,29.94,10.0,West,12.7,-,N/A,,Mostly Cloudy,260,2014-01-19 05:54:00
1:54 AM,21.9,8.1,55,29.94,10.0,West,10.4,-,N/A,,Mostly Cloudy,260,2014-01-19 06:54:00
2:54 AM,21.9,8.1,55,29.94,10.0,WSW,6.9,-,N/A,,Overcast,250,2014-01-19 07:54:00
3:54 AM,23.0,9.0,55,29.92,10.0,West,13.8,-,N/A,,Overcast,270,2014-01-19 08:54:00
4:54 AM,23.0,9.0,55,29.90,10.0,West,6.9,-,N/A,,Overcast,270,2014-01-19 09:54:00
5:54 AM,23.0,10.0,58,29.91,10.0,WSW,11.5,-,N/A,,Overcast,250,2014-01-19 10:54:00
6:54 AM,23.0,10.0,58,29.89,10.0,SW,9.2,-,N/A,,Mostly Cloudy,220,2014-01-19 11:54:00
7:54 AM,23.0,10.9,60,29.88,10.0,SSW,4.6,-,N/A,,Mostly Cloudy,200,2014-01-19 12:54:00
8:54 AM,25.0,10.9,55,29.88,10.0,SSW,5.8,-,N/A,,Mostly Cloudy,200,2014-01-19 13:54:00
9:54 AM,28.0,12.0,51,29.86,10.0,SSW,9.2,-,N/A,,Mostly Cloudy,210,2014-01-19 14:54:00
10:54 AM,30.9,14.0,50,29.83,10.0,SW,10.4,-,N/A,,Mostly Cloudy,220,2014-01-19 15:54:00
11:54 AM,34.0,15.1,46,29.80,10.0,WSW,11.5,-,N/A,,Mostly Cloudy,240,2014-01-19 16:54:00
12:54 PM,36.0,17.1,46,29.77,10.0,WSW,13.8,-,N/A,,Mostly Cloudy,240,2014-01-19 17:54:00
1:54 PM,39.0,19.0,45,29.74,10.0,SW,13.8,-,N/A,,Mostly Cloudy,230,2014-01-19 18:54:00
2:54 PM,39.9,19.9,45,29.74,10.0,SW,10.4,-,N/A,,Mostly Cloudy,230,2014-01-19 19:54:00
3:54 PM,41.0,19.9,43,29.73,10.0,WSW,18.4,26.5,N/A,,Partly Cloudy,240,2014-01-19 20:54:00
4:54 PM,39.0,19.9,46,29.74,10.0,SW,12.7,-,N/A,,Partly Cloudy,230,2014-01-19 21:54:00
5:54 PM,37.9,19.9,48,29.75,10.0,SW,10.4,-,N/A,,Partly Cloudy,230,2014-01-19 22:54:00
6:54 PM,37.0,21.0,52,29.75,10.0,SW,9.2,-,N/A,,Partly Cloudy,230,2014-01-19 23:54:00
7:54 PM,37.0,21.0,52,29.75,10.0,WSW,10.4,-,N/A,,Partly Cloudy,240,2014-01-20 00:54:00
8:54 PM,37.9,21.9,53,29.75,10.0,SW,10.4,-,N/A,,Partly Cloudy,220,2014-01-20 01:54:00
9:54 PM,37.9,21.9,53,29.74,10.0,SW,11.5,-,N/A,,Clear,230,2014-01-20 02:54:00
10:54 PM,36.0,23.0,59,29.74,10.0,WSW,12.7,-,N/A,,Clear,240,2014-01-20 03:54:00
11:54 PM,32.0,21.9,66,29.73,10.0,WSW,3.5,-,N/A,,Clear,240,2014-01-20 04:54:00